Preview of NWS' New Version of Forecast
This preview is not operational and should not be used for support decisions.

Regional Weather Roundup (RWR)

Issued by National Weather Service (NWS)

                            
000
ASUS42 KTBW 170916
RWRFL 
FLORIDA REGIONAL WEATHER ROUNDUP
NATIONAL WEATHER SERVICE TAMPA BAY RUSKIN FL
500 AM EDT FRI MAY 17 2019

NOTE: "FAIR" INDICATES FEW OR NO CLOUDS BELOW 12,000 FEET WITH NO
SIGNIFICANT WEATHER AND/OR OBSTRUCTIONS TO VISIBILITY.

FLZ001>010-012>015-112-114-115-171000-
PANHANDLE FLORIDA
  
CITY           SKY/WX    TMP DP  RH WIND       PRES   REMARKS
PENSACOLA      FAIR      68  67  96 CALM      29.98F                  
PENSACOLA NAS  FAIR      63  63 100 CALM      29.98S                  
MILTON NAS     FAIR      62  61  96 CALM      29.99S                  
CRESTVIEW      FAIR      60  58  92 CALM      30.01S                  
DUKE FIELD     FAIR      62  62  98 CALM      29.99S                  
VALPARAISO     FAIR      67  63  87 N3        29.98S                  
MARY ESTHER    CLEAR     64  62  95 CALM      29.97F                  
PANAMA CITY    FAIR      63  60  90 CALM      29.98S                  
TYNDALL AFB    FAIR      65  62  88 CALM      29.98S                  
APALACHICOLA   FAIR      64  59  83 CALM      29.99S                  

STATION/POSITION SKY/WX   TEMP    WIND        PRES    WAVE   SWELL
                          AIR SEA DIR/SP/G            HT/PER HT/PER
                          (F)     (DEG/KT/KT) (MB)    (FT/S) (FT/S)
30.1N   87.6W                                   N/A     1/ 7
29.2N   88.2W                      90/  2/  4 1015.3F   1/ 7   2/ 7
PANAMA CITY BEAC           72 77  330/  5/  6 1015.7S
TOWER C          NOT AVBL

$$
FLZ011-016>038-118-127-128-134-139-239-171000-
NORTH FLORIDA
  
CITY           SKY/WX    TMP DP  RH WIND       PRES   REMARKS
MARIANNA       FAIR      68  65  90 SW3       29.98F                  
TALLAHASSEE    FAIR      63  61  93 CALM      29.99S                  
PERRY          FAIR      66  64  95 CALM      30.01F                  
LIVE OAK       CLEAR     64  64 100 CALM      30.01S                  
CROSS CITY     FAIR      64  63  95 CALM      30.01S                  
LAKE CITY      FAIR      61  61 100 CALM      30.02S                  
GAINESVILLE    FAIR      68  61  78 CALM      30.05R                  
WILLISTON      FAIR      64  62  93 CALM      30.03R                  
PALATKA        FAIR     N/A N/A N/A CALM      30.03S                  
MAYPORT NAS    FAIR      66  62  87 SW7       30.02S                  
JACKSONVILLE   FAIR      65  60  84 S5        30.01S                  
JAX NAS        FAIR      72  61  68 S7        30.02S                  
JAX CECIL      FAIR      59  57  94 CALM      30.02S                  
FERNANDINA BEA MOCLDY    70  64  81 S9        30.01S                  
ST AUGUSTINE   FAIR      66  61  84 SW5       30.03S                  
PALM COAST     FAIR      62  60  94 CALM      30.03R                  

STATION/POSITION SKY/WX   TEMP    WIND        PRES    WAVE   SWELL
                          AIR SEA DIR/SP/G            HT/PER HT/PER
                          (F)     (DEG/KT/KT) (MB)    (FT/S) (FT/S)
SHELL POINT      NOT AVBL
KEATON BEACH               69      80/  6/  6 1016.1F
CEDAR KEY                  76     160/ 12/ 13 1016.3R
FERNANDINA                 72 78  170/  4/  7 1017.0R
30.7N   81.3W                 77                N/A     3/ 5   2/15
MAYPORT                    69 79  200/  5/  6 1016.7S
31.4N   80.9W              75 75  200/ 17/ 21 1015.4F   4/ 5   2/16
ST AUGUSTINE               69 78  220/  6/  7 1016.9R

$$
FLZ040-043>046-052-053-057-058-063-144-171000-
INTERIOR CENTRAL FLORIDA
  
CITY           SKY/WX    TMP DP  RH WIND       PRES   REMARKS
OCALA          FAIR      65  63  93 CALM      30.03                   
LEESBURG       FAIR      70  62  76 S9        30.03S                  
SANFORD        FAIR      67  63  87 CALM      30.03R                  
ORLANDO EXEC   FAIR      68  62  81 CALM      30.02S                  
ORLANDO INTL   FAIR      67  61  81 CALM      30.02F                  
KISSIMMEE      FAIR      67  64  90 CALM      30.03F                  
BARTOW         FAIR      64  61  88 CALM      30.02S                  
SEBRING        FAIR      63  61  93 N3        30.02S                  
OKEECHOBEE     FAIR      63  61  94 CALM      30.01S                  

$$
FLZ041-047-054-059-064-141-147-171000-
EAST CENTRAL FLORIDA
  
CITY           SKY/WX    TMP DP  RH WIND       PRES   REMARKS
DAYTONA BEACH  FAIR      64  64 100 CALM      30.03S                  
DELAND         MOCLDY    63  61  94 CALM      30.03S                  
JFK SPACE CTR  FAIR      61  59  93 CALM      30.02R                  
CAPE CANAVERAL FAIR      63  56  77 CALM      30.01S                  
PATRICK AFB    FAIR      72  64  77 CALM      30.01S                  
MELBOURNE      FAIR      66  61  84 W3        30.02R                  
VERO BEACH     FAIR      62  59  90 CALM      30.02R                  
FT PIERCE      FAIR      62  59  90 CALM      30.02R                  
STUART         FAIR      70  63  78 CALM      30.02S                  

STATION/POSITION SKY/WX   TEMP    WIND        PRES    WAVE   SWELL
                          AIR SEA DIR/SP/G            HT/PER HT/PER
                          (F)     (DEG/KT/KT) (MB)    (FT/S) (FT/S)
28.5N   80.2W              76     120/  6/ 10 1016.9R   2/15   2/15
28.9N   78.5W              74 77  100/  4/  6 1017.3F   3/14   3/14
TRIDENT PIER               72 80  120/  4/  5 1017.9R
28.4N   80.5W                 78                N/A     2/15   2/15
27.5N   80.2W                 78                N/A     3/13   2/13

$$
FLZ050-056-061-142-242-148-248-149-249-151-251-155-255-
160-260-171000-
WEST CENTRAL FLORIDA
  
CITY           SKY/WX    TMP DP  RH WIND       PRES   REMARKS
CRYSTAL RIVER  FAIR      64  61  88 CALM      30.02R                  
INVERNESS      FAIR      63  63 100 CALM      30.03S                  
BROOKSVILLE    FAIR      62  60  93 CALM      30.02F                  
CLEARWATER AIR FAIR      72  61  68 SE6       30.01S                  
ST PETE CLEARW   N/A    N/A N/A N/A MISG      30.01S                  
TAMPA INTL     FAIR      70  62  76 SE8       30.02S                  
TAMPA EXEC     FAIR      63  61  94 CALM      30.03S                  
PLANT CITY     FAIR      66  63  88 CALM      30.04S                  
MACDILL AFB    FAIR      70  62  77 SE6       30.01S                  
PETER O KNIGHT CLOUDY    70  64  83 E3        30.02S                  
ST PETERSBURG  FAIR      74  64  71 SE10      29.99S                  
SARASOTA       FAIR      69  62  78 E7        29.99                   
VENICE         FAIR      68  64  88 E6        30.01S                  

STATION/POSITION SKY/WX   TEMP    WIND        PRES    WAVE   SWELL
                          AIR SEA DIR/SP/G            HT/PER HT/PER
                          (F)     (DEG/KT/KT) (MB)    (FT/S) (FT/S)
27.3N   84.2W                 77                N/A     1/ 8
CLEARWATER BEACH           74 82  110/  7/ 10 1016.2R
MIDDLE TAMPA BAY           71     130/ 11/ 14 1016.2S
VENICE                     69 81   70/  6/  7 1015.9R

$$
FLZ066-069-070-075>078-162-262-165-265-171000-
SOUTHWEST FLORIDA AND KEYS
  
CITY           SKY/WX    TMP DP  RH WIND       PRES   REMARKS
PUNTA GORDA    FAIR      64  61  90 CALM      30.02                   
FT MYERS       FAIR      68  65  90 E7        30.00                   
SOUTHWEST INTL FAIR      68  63  84 NE6       30.00                   
NAPLES         FAIR      68  65  90 NE7       29.99R                  
MARCO ISLAND   FAIR      67  65  93 NE7       30.00                   
IMMOKALEE      FAIR      64  63  94 N3        29.99R                  
MARATHON       MOCLDY    81  70  69 E6        29.95S                  
KEY WEST NAS   FAIR      80  70  71 E10       29.95S                  
KEY WEST INTL  FAIR      79  70  74 E10       29.95S                  

STATION/POSITION SKY/WX   TEMP    WIND        PRES    WAVE   SWELL
                          AIR SEA DIR/SP/G            HT/PER HT/PER
                          (F)     (DEG/KT/KT) (MB)    (FT/S) (FT/S)
NAPLES                     70 82              1015.4R
DRY TORTUGAS               80     130/ 11/ 12 1014.2F
SAND KEY                   80                 1014.1S
SOMBRERO KEY               80                 1013.7R

$$
FLZ067-068-071>074-168-172>174-171000-
SOUTHEAST FLORIDA 
  
CITY           SKY/WX    TMP DP  RH WIND       PRES   REMARKS
W PALM BEACH   FAIR      72  63  73 CALM      30.00R                  
FT LAUDER-EXEC FAIR      73  66  78 NE3       29.99R                  
FT LAUDERDALE  FAIR      74  65  73 NE3       29.98R                  
POMPANO BEACH  FAIR      76  65  68 NE6       29.99R                  
PEMBROKE PINES FAIR      69  66  90 CALM      30.00R                  
OPA LOCKA      FAIR      73  66  78 N5        29.99R                  
MIAMI          FAIR      75  66  73 N3        29.99R                  
WEST KENDALL   FAIR      70  65  84 N3        29.98R                  
HOMESTEAD      FAIR      71  66  85 NW5       29.97R                  

STATION/POSITION SKY/WX   TEMP    WIND        PRES    WAVE   SWELL
                          AIR SEA DIR/SP/G            HT/PER HT/PER
                          (F)     (DEG/KT/KT) (MB)    (FT/S) (FT/S)
PORT EVERGLADES            78      70/  7/ 10 1015.1
VIRGINIA KEY               78 83   30/  6/  9 1014.6R
LAKE WORTH                 77 81              1016.8R
SETTLEMENT POINT           76      80/ 10/ 12 1016.0R

$$